Location: Breezy Point Observatory
(38.9725°N, 81.7133°W)
Time: 11:59:33
(UTC-05:00)

Hubble Space Telescope - Visible Passes

Search period start: 30 January 2015 00:00
Search period end: 09 February 2015 00:00
Orbit: 544 x 548 km, 28.5° (Epoch: 30 January)

Date Brightness Start Highest point End Pass type
(mag) Time Alt. Az. Time Alt. Az. Time Alt. Az.
30 Jan 2.8 19:44:19 10° SW 19:47:07 19° S 19:47:07 19° S visible
31 Jan 2.7 19:36:09 10° SW 19:39:10 19° S 19:39:39 19° S visible
01 Feb 2.7 19:28:03 10° SW 19:31:04 19° S 19:32:13 17° SSE visible
02 Feb 2.9 19:20:00 10° SW 19:22:57 19° S 19:24:47 14° SSE visible
03 Feb 3.0 19:11:59 10° SW 19:14:50 18° S 19:17:24 11° SSE visible
04 Feb 3.2 19:04:03 10° SW 19:06:42 16° S 19:09:20 10° SSE visible
05 Feb 3.3 18:56:12 10° SW 18:58:34 15° SSW 19:00:53 10° SSE visible
06 Feb 3.4 18:48:30 10° SW 18:50:24 13° SSW 18:52:15 10° SSE visible
07 Feb 3.7 18:41:13 10° SSW 18:42:14 11° SSW 18:43:11 10° S visible
